Terminal Aerodrome Forecast
Issued by NWS Columbia, SC

Home | Current Version | Previous Version | Text Only | Print | Product List | Glossary On
Versions: 1 2 3 4 5 6 7 8 9 10 11 12 13 14 15 16 17 18 19 20 21 22 23 24 25 26 27 28 29 30 31 32 33 34 35 36 37 38 39 40 41 42 43 44 45 46 47 48 49 50
000
FTUS42 KCAE 181000 AAB
TAFAGS
TAF AMD
KAGS 181019Z 1810/1906 00000KT 5SM BR SCT003 BKN020
     FM181100 00000KT 3SM BR BKN003
     FM181500 06005KT P6SM SCT012 BKN030
     FM181800 08005KT P6SM SCT050=

USA.gov is the U.S. government's official web portal to all federal, state and local government web resources and services.